Simultaneous Nadir Overpasses (SNOs) Predictions

Prediction of SNOs between AQUA and GOES-15 Satellite Orbit:

Table of predicted SNOs for the next 14.0 days since TLE Epoch: 5/7/2022
Index Date Time (AQUA) AQUA Lat,Lon GOES-15 Lat,Lon Distance(km) Time Diff (sec)
1 05/08/2022 10:01:18 -0.31,-125.90 0.11,-127.95 232.87 80
2 05/08/2022 22:22:39 -0.74,-131.08 -0.09,-127.95 355.77 80
3 05/10/2022 22:10:11 -0.11,-128.05 -0.10,-127.88 18.16 80
4 05/12/2022 21:57:42 0.48,-125.00 -0.10,-127.81 319.55 80
5 05/13/2022 10:18:54 0.57,-130.15 0.09,-127.79 268.03 80
6 05/15/2022 10:06:25 -0.04,-127.11 0.09,-127.71 68.64 80
7 05/17/2022 09:53:56 -0.68,-124.07 0.09,-127.62 404.53 80
8 05/17/2022 22:15:16 -0.39,-129.24 -0.07,-127.61 185.39 80
9 05/19/2022 22:02:46 0.21,-126.20 -0.07,-127.52 149.90 80
10 05/20/2022 10:23:56 0.88,-131.33 0.06,-127.49 437.51 80
